Location: Bailleul
(50.3375°N, 2.8513°E)
Time: 10:28:18
(UTC+00:00)

Cosmos 1850 Rocket - Pass Details

Date: 16 June 2021
Orbit: 755 x 785 km, 74.0° (Epoch: 01 August)

Event Time Altitude Azimuth Distance (km) Brightness Sun altitude
Rises 21:02:47 0° 334° (NNW) 3,279 9.3 -7.6°
Reaches altitude 10° 21:05:12 10° 333° (NNW) 2,343 8.1 -7.8°
Maximum altitude 21:10:30 75° 250° (WSW) 807 4.2 -8.3°
Drops below altitude 10° 21:15:44 10° 165° (SSE) 2,308 5.9 -8.8°
Enters shadow 21:15:54 - 165° (SSE) 2,370 5.9 -8.8°
